Home   Weather   Hamm   Past weeks

Flag for Germany Past Weather in Hamm, North Rhine-Westphalia, Germany — Yesterday and Last 2 Weeks

Now
48 °F

Sunny.


Feels Like: 44 °F
Forecast: 44 / 46 °F
Wind: 9 mph from West

Location: Dortmund / Wickede

Current Time: Dec 10, 2016 at 1:40:47 pm

Latest Report: Dec 10, 2016 at 12:50 pm


Visibility: 10 mi

Pressure: 30.18 "Hg

Humidity: 66%

Dew Point: 37 °F

Location of HammLocation

Past Weather in Hamm — Graph

°F

Hamm Temperature Yesterday

Maximum temperature yesterday: 52 °F (at 5:50 pm)
Minimum temperature yesterday: 45 °F (at 5:20 am)
Average temperature yesterday: 48 °F

High & Low Weather Summary for the Past Weeks

 TemperatureHumidityPressure
High52 °F (Dec 9, 5:50 pm)93% (Nov 26, 5:20 am)30.57 "Hg (Nov 26, 5:20 am)
Low21 °F (Nov 29, 6:50 am)41% (Nov 30, 12:20 pm)30.07 "Hg (Nov 26, 1:20 pm)
Average37 °F75%30.30 "Hg
* Reported Nov 25 12:20 pm — Dec 10 12:20 pm, Hamm, Weather by CustomWeather, © 2016

Note: Actual official high and low records may vary slightly from our data, if they occured in-between our weather recording intervals... More about our weather records

Advertising

Hamm Weather History for the Previous 24 Hours

Scroll right to see more
 ConditionsComfort  
Time TempWeatherWind HumidityBarometerVisibility
12:20 pm
Sat, Dec 10
48 °FPassing clouds.8 mph66%30.21 "HgN/A
11:50 am48 °FSunny.10 mph66%30.18 "Hg10 mi
11:20 am46 °FSunny.14 mph71%30.21 "Hg10 mi
10:50 am46 °FSunny.17 mph71%30.21 "Hg10 mi
10:20 am46 °FSunny.14 mph66%30.21 "Hg10 mi
9:50 am46 °FPassing clouds.15 mph66%30.21 "HgN/A
9:20 am46 °FPartly sunny.15 mph66%30.21 "HgN/A
8:50 am46 °FSunny.14 mph66%30.21 "Hg10 mi
8:20 am46 °FClear.13 mph66%30.21 "Hg10 mi
7:50 am46 °FClear.13 mph66%30.21 "Hg10 mi
7:20 am46 °FClear.14 mph66%30.18 "Hg10 mi
6:50 am46 °FClear.13 mph66%30.18 "Hg10 mi
6:20 am46 °FClear.15 mph66%30.18 "Hg10 mi
5:50 am46 °FClear.17 mph66%30.18 "Hg10 mi
5:20 am46 °FClear.12 mph66%30.18 "Hg10 mi
9:50 pm
Fri, Dec 9
48 °FClear.10 mph71%30.30 "Hg10 mi
9:20 pm48 °FClear.8 mph71%30.30 "Hg10 mi
8:50 pm48 °FClear.13 mph71%30.30 "Hg10 mi
8:20 pm50 °FClear.14 mph71%30.30 "Hg10 mi
7:50 pm50 °FClear.13 mph67%30.30 "Hg10 mi
7:20 pm50 °FPassing clouds.12 mph71%30.30 "HgN/A
6:50 pm50 °FPassing clouds.12 mph71%30.30 "HgN/A
6:20 pm52 °FPassing clouds.13 mph67%30.30 "HgN/A
5:50 pm52 °FPassing clouds.14 mph67%30.30 "HgN/A
5:20 pm50 °FPassing clouds.15 mph71%30.33 "HgN/A
4:50 pm50 °FPassing clouds.15 mph71%30.33 "HgN/A
4:20 pm50 °FPassing clouds.10 mph71%30.33 "HgN/A
3:50 pm50 °FPartly sunny.12 mph76%30.33 "HgN/A
3:20 pm50 °FPartly sunny.10 mph76%30.33 "HgN/A
2:50 pm50 °FPartly sunny.10 mph82%30.33 "HgN/A
2:20 pm50 °FPartly sunny.10 mph82%30.33 "HgN/A
1:50 pm50 °FPartly sunny.12 mph82%30.33 "Hg4 mi
1:20 pm48 °FFog.9 mph87%30.36 "Hg2 mi
Weather by CustomWeather, © 2016

See weather overviewHow to use our weather pages